Location: Crescent
(42.8242°N, 73.7329°W)
Time: 12:00:42
(UTC+00:00)

Vanguard 3 - Pass Details

Date: 16 February 2026
Orbit: 507 x 3205 km, 33.4° (Epoch: 8 March)

Event Time Altitude Azimuth Distance (km) Brightness Sun altitude
Rises 23:57:38 0° 254° (WSW) 3,955 12.2 -17.3°
Reaches altitude 10° 00:01:16 10° 244° (WSW) 2,586 10.7 -17.9°
Maximum altitude 00:06:03 27° 187° (S) 1,292 8.2 -18.8°
Enters shadow 00:07:46 21° 151° (SSE) 1,394 8.1 -19.1°
